Location: Muchchint?la
(16.9106°N, 80.2664°E)
Time: 00:52:30
(UTC+00:00)

Cosmos 2369 Rocket - Pass Details

Date: 14 April 2024
Orbit: 830 x 850 km, 71.0° (Epoch: 23 May)

Event Time Altitude Azimuth Distance (km) Brightness Sun altitude
Rises 00:00:06 0° 353° (N) 3,366 5.4 -6.4°
Reaches altitude 10° 00:02:39 10° 0° (N) 2,431 4.8 -5.9°
Maximum altitude 00:07:55 43° 71° (ENE) 1,142 3.7 -4.6°
Drops below altitude 10° 00:13:11 10° 143° (SE) 2,427 5.0 -3.4°
Sets 00:15:43 0° 149° (SSE) 3,360 5.6 -2.8°
